Land O' Lakes, WI

6:57 PM CDT on August 22, 2017 (GMT -0500)
Kings Land O'Lakes

Weather History for KLNL - February, 2013

Change the Weather History Date:

Wednesday, February 13, 2013

  Actual Average (KEGV) Record (KEGV)
Temperature  
Mean Temperature 24 °F -  
Max Temperature 35 °F 20 °F 44 °F (2011)
Min Temperature 12 °F 2 °F -20 °F (1992)
Degree Days  
Heating Degree Days 42    
Moisture  
Dew Point 22 °F    
Average Humidity 87    
Maximum Humidity 100    
Minimum Humidity 70    
Precipitation  
Precipitation 0.09 in - - ()
Sea Level Pressure  
Sea Level Pressure 29.61 in    
Wind  
Wind Speed 2 mph (SW)    
Max Wind Speed 7 mph    
Max Gust Speed -    
Visibility 9 miles    
Events      
Averages and records for this station are not official NWS values.
T = Trace of Precipitation, MM = Missing Value Source: NWS Daily Summary

Daily Weather History Graph

Daily Weather History Graph

Search for Another Location

Airport or City:

Trip Planner

Search our weather history database for the weather conditions in past years. The results will help you decide how hot, cold, wet, or windy it might be!

Date:

Astronomy

Feb. 13, 2013 Rise Set
Actual Time 7:02 AM CST 5:20 PM CST
Civil Twilight 6:31 AM CST 5:51 PM CST
Nautical Twilight 5:56 AM CST 6:26 PM CST
Astronomical Twilight 5:21 AM CST 7:01 PM CST
Moon 8:16 AM CST (2/13) 9:40 PM CST (2/13)
Length of Visible Light 11h 19m
Length of Day
10h 17m
Waxing Crescent, 14% of the Moon is Illuminated
Feb 13
Waxing Crescent
Feb 17
First Quarter
Feb 25
Full
Mar 4
Last Quarter
Mar 11
New

Hourly Weather History & Observations

Time (CST) Temp. Windchill Dew Point Humidity Pressure Visibility Wind Dir Wind Speed Gust Speed Precip Events Conditions
12:15 AM 17.6 °F 12.3 °F 14.0 °F 86% 29.68 in 10.0 mi WSW 3.5 mph - N/A   Scattered Clouds
12:35 AM 19.4 °F 14.3 °F 17.6 °F 93% 29.67 in 10.0 mi WSW 3.5 mph - N/A   Scattered Clouds
12:55 AM 21.2 °F 16.4 °F 19.4 °F 93% 29.66 in 10.0 mi SW 3.5 mph - N/A   Overcast
1:15 AM 21.2 °F 16.4 °F 19.4 °F 93% 29.65 in 10.0 mi SW 3.5 mph - N/A   Mostly Cloudy
1:35 AM 19.4 °F 14.3 °F 17.6 °F 93% 29.65 in 10.0 mi SW 3.5 mph - N/A   Clear
1:55 AM 17.6 °F 12.3 °F 15.8 °F 93% 29.66 in 7.0 mi SSW 3.5 mph - N/A   Clear
2:15 AM 15.8 °F - 14.0 °F 93% 29.65 in 7.0 mi Calm Calm - N/A   Clear
2:35 AM 12.2 °F 6.1 °F 10.4 °F 92% 29.66 in 7.0 mi SW 3.5 mph - N/A   Clear
2:55 AM 12.2 °F 4.3 °F 10.4 °F 92% 29.65 in 10.0 mi SSW 4.6 mph - N/A   Mostly Cloudy
3:15 AM 15.8 °F 10.2 °F 14.0 °F 93% 29.65 in 10.0 mi SW 3.5 mph - N/A   Overcast
3:35 AM 15.8 °F - 14.0 °F 93% 29.64 in 10.0 mi Calm Calm - N/A   Overcast
3:55 AM 17.6 °F - 14.0 °F 86% 29.64 in 10.0 mi Calm Calm - N/A   Overcast
4:15 AM 15.8 °F - 14.0 °F 93% 29.64 in 10.0 mi Calm Calm - N/A   Overcast
4:35 AM 17.6 °F - 14.0 °F 86% 29.64 in 10.0 mi Calm Calm - N/A   Overcast
4:55 AM 15.8 °F - 14.0 °F 93% 29.64 in 10.0 mi Calm Calm - N/A   Overcast
5:15 AM 15.8 °F - 12.2 °F 86% 29.64 in 10.0 mi Calm Calm - N/A   Overcast
5:35 AM 15.8 °F - 14.0 °F 93% 29.63 in 10.0 mi Calm Calm - N/A   Overcast
5:55 AM 17.6 °F - 15.8 °F 93% 29.63 in 7.0 mi Calm Calm - N/A   Overcast
6:15 AM 17.6 °F - 14.0 °F 86% 29.63 in 10.0 mi Calm Calm - N/A   Overcast
6:35 AM 17.6 °F - 14.0 °F 86% 29.62 in 10.0 mi Calm Calm - N/A   Overcast
6:55 AM 17.6 °F - 14.0 °F 86% 29.63 in 10.0 mi Calm Calm - N/A   Overcast
7:15 AM 17.6 °F - 14.0 °F 86% 29.62 in 7.0 mi Calm Calm - N/A   Overcast
7:35 AM 15.8 °F - 14.0 °F 93% 29.63 in 7.0 mi Calm Calm - N/A   Overcast
7:55 AM 17.6 °F - 14.0 °F 86% 29.62 in 7.0 mi Calm Calm - N/A   Overcast
8:15 AM 19.4 °F - 17.6 °F 93% 29.62 in 7.0 mi Calm Calm - N/A   Overcast
8:35 AM 19.4 °F - 19.4 °F 100% 29.62 in 7.0 mi Calm Calm - N/A   Mostly Cloudy
8:55 AM 21.2 °F - 21.2 °F 100% 29.62 in 5.0 mi Calm Calm - N/A   Scattered Clouds
9:15 AM 23.0 °F 18.4 °F 21.2 °F 93% 29.62 in 7.0 mi SSW 3.5 mph - N/A   Mostly Cloudy
9:35 AM 23.0 °F - 21.2 °F 93% 29.61 in 7.0 mi Calm Calm - N/A   Overcast
9:55 AM 26.6 °F 22.6 °F 23.0 °F 86% 29.61 in 10.0 mi SW 3.5 mph - N/A   Overcast
10:15 AM 26.6 °F 22.6 °F 23.0 °F 86% 29.61 in 10.0 mi SSW 3.5 mph - N/A   Overcast
10:35 AM 28.4 °F 23.3 °F 23.0 °F 80% 29.61 in 10.0 mi South 4.6 mph - N/A   Overcast
10:55 AM 28.4 °F 24.6 °F 24.8 °F 86% 29.61 in 10.0 mi South 3.5 mph - N/A   Overcast
11:15 AM 30.2 °F - 24.8 °F 80% 29.60 in 10.0 mi Calm Calm - N/A   Overcast
11:35 AM 32.0 °F 27.5 °F 26.6 °F 80% 29.60 in 10.0 mi SW 4.6 mph - N/A   Overcast
11:55 AM 32.0 °F 27.5 °F 26.6 °F 80% 29.59 in 10.0 mi SW 4.6 mph - N/A   Overcast
12:15 PM 32.0 °F 27.5 °F 26.6 °F 80% 29.59 in 10.0 mi SW 4.6 mph - N/A   Overcast
12:35 PM 33.8 °F 28.6 °F 26.6 °F 75% 29.59 in 10.0 mi SW 5.8 mph - N/A   Overcast
12:55 PM 33.8 °F 29.6 °F 26.6 °F 75% 29.58 in 10.0 mi SW 4.6 mph - N/A   Mostly Cloudy
1:15 PM 35.6 °F 30.7 °F 26.6 °F 70% 29.58 in 10.0 mi SSW 5.8 mph - N/A   Clear
1:35 PM 35.6 °F 31.7 °F 26.6 °F 70% 29.58 in 10.0 mi SW 4.6 mph - N/A   Clear
1:55 PM 35.6 °F 30.7 °F 26.6 °F 70% 29.57 in 10.0 mi SSW 5.8 mph - 0.01 in   Clear
2:15 PM 35.6 °F 30.7 °F 26.6 °F 70% 29.56 in 10.0 mi SW 5.8 mph - N/A   Clear
2:35 PM 35.6 °F 29.9 °F 26.6 °F 70% 29.56 in 10.0 mi SW 6.9 mph - 0.02 in   Clear
2:55 PM 35.6 °F 30.7 °F 26.6 °F 70% 29.57 in 10.0 mi WSW 5.8 mph - 0.04 in   Clear
3:15 PM 33.8 °F 29.6 °F 26.6 °F 75% 29.57 in 10.0 mi SW 4.6 mph - 0.01 in   Clear
3:55 PM 33.8 °F 30.8 °F 26.6 °F 75% 29.57 in 10.0 mi West 3.5 mph - 0.03 in   Clear
4:15 PM 33.8 °F 29.6 °F 26.6 °F 75% 29.57 in 10.0 mi WSW 4.6 mph - 0.01 in   Clear
4:35 PM 33.8 °F - 26.6 °F 75% 29.57 in 10.0 mi Calm Calm - 0.01 in   Clear
4:55 PM 32.0 °F - 28.4 °F 87% 29.57 in 10.0 mi Calm Calm - 0.01 in   Clear
5:15 PM 32.0 °F - 28.4 °F 87% 29.58 in 10.0 mi Calm Calm - N/A   Clear
5:35 PM 32.0 °F - 28.4 °F 87% 29.58 in 10.0 mi Calm Calm - N/A   Mostly Cloudy
5:55 PM 30.2 °F - 28.4 °F 93% 29.59 in 10.0 mi Calm Calm - N/A   Mostly Cloudy
6:15 PM 30.2 °F 26.7 °F 28.4 °F 93% 29.59 in 10.0 mi SW 3.5 mph - N/A   Scattered Clouds
6:35 PM 30.2 °F 26.7 °F 28.4 °F 93% 29.59 in 10.0 mi SW 3.5 mph - N/A   Mostly Cloudy
6:55 PM 30.2 °F - 28.4 °F 93% 29.59 in 10.0 mi Calm Calm - N/A   Overcast
7:15 PM 30.2 °F - 28.4 °F 93% 29.59 in 10.0 mi Calm Calm - N/A   Overcast
7:35 PM 30.2 °F - 28.4 °F 93% 29.59 in 10.0 mi Calm Calm - N/A   Overcast
7:55 PM 30.2 °F - 28.4 °F 93% 29.59 in 10.0 mi Calm Calm - N/A   Overcast
8:15 PM 28.4 °F - 26.6 °F 93% 29.59 in 7.0 mi Calm Calm - N/A   Overcast
8:35 PM 30.2 °F - 28.4 °F 93% 29.59 in 7.0 mi Calm Calm - N/A   Overcast
8:55 PM 28.4 °F - 28.4 °F 100% 29.59 in 10.0 mi Calm Calm - N/A   Overcast
9:15 PM 30.2 °F - 28.4 °F 93% 29.59 in 10.0 mi Calm Calm - N/A   Overcast
9:35 PM 30.2 °F - 28.4 °F 93% 29.59 in 10.0 mi Calm Calm - N/A   Overcast
9:55 PM 30.2 °F - 28.4 °F 93% 29.59 in 10.0 mi Calm Calm - N/A   Overcast
10:15 PM 30.2 °F 26.7 °F 28.4 °F 93% 29.58 in 10.0 mi North 3.5 mph - N/A   Overcast
10:35 PM 30.2 °F 24.3 °F 28.4 °F 93% 29.58 in 10.0 mi NNE 5.8 mph - N/A   Overcast
10:55 PM 30.2 °F 24.3 °F 28.4 °F 93% 29.58 in 10.0 mi North 5.8 mph - N/A   Overcast
11:15 PM 30.2 °F - 26.6 °F 86% 29.58 in 10.0 mi Calm Calm - N/A   Overcast
11:35 PM 28.4 °F 24.6 °F 26.6 °F 93% 29.59 in 10.0 mi North 3.5 mph - N/A   Overcast
11:55 PM 28.4 °F 23.3 °F 26.6 °F 93% 29.59 in 10.0 mi North 4.6 mph - N/A   Overcast